Temp_Advection
nan nan nan nan nan nan nan nan nan nan nan nan nan nan nan nan nan nan nan nan nan nan nan nan nan nan nan nan nan nan nan nan nan nan nan nan nan nan nan nan nan nan nan
nan -0 -0 -0 -0 0 0 0 0 0 0 0 0 0 0 0 0 0 0 0 0 0 0 0 0 0 0 0 0 0 0 0 0 0 -0 0 0 -0 -0 -0 0 0 nan
nan 0 -0 -0 0 0 0 0 0 0 0 -0 0 0 0 0 0 0 0 0 0 0 0 0 0 0 0 0 0 0 0 -0 -0 -0 -0 -0 0 0 -0 0 0 -0 nan
nan 0 0 -0 0 0 -0 -0 -0 -0 -0 0 0 0 0 0 0 0 0 0 0 0 0 0 0 0 0 0 0 0 0 0 -0 -0 -0 -0 0 0 0 0 0 0 nan
nan 0 -0 0 0 0 0 0 0 -0 -0 0 0 0 0 0 0 0 0 -0 0 1 1 0 0 0 0 0 0 0 0 0 0 -0 -1 -0 -0 0 0 0 0 0 nan
nan 0 -0 0 0 0 0 0 0 0 0 0 0 -0 -0 0 0 0 -0 0 0 0 0 0 0 0 0 0 0 0 0 0 0 -0 -0 0 -0 0 0 0 0 0 nan
nan 0 -0 0 0 0 0 0 0 0 0 0 0 0 0 0 0 -0 -0 0 0 0 1 0 0 0 0 0 0 0 0 0 0 -0 -0 0 -0 0 0 0 0 0 nan
nan -0 -0 0 0 0 0 0 0 0 0 0 0 0 0 0 0 0 0 0 0 -0 -0 -0 0 0 0 0 0 0 0 0 0 0 0 -0 0 0 0 0 0 0 nan
nan -1 0 0 0 0 0 0 0 0 0 0 0 0 0 0 0 0 0 0 0 0 0 0 0 0 0 0 0 0 0 0 0 -0 -0 0 0 0 0 0 0 0 nan
nan -0 0 0 0 0 0 0 0 0 0 0 0 0 0 0 1 0 0 0 0 -0 0 0 -0 0 0 0 0 0 0 0 0 -0 -0 0 0 0 0 0 0 0 nan
nan 0 0 0 0 0 0 0 0 0 0 0 0 0 0 1 1 0 1 1 0 0 0 0 0 0 0 0 0 0 0 0 0 0 0 0 0 0 -0 -0 -0 -0 nan
nan 0 0 0 0 1 0 0 0 1 1 1 1 1 0 1 0 0 0 0 0 0 0 1 0 0 0 1 0 0 0 0 0 0 0 0 1 0 0 -0 -0 -0 nan
nan 0 0 0 0 1 1 0 1 1 1 1 1 0 -0 0 0 0 0 0 0 1 1 0 0 0 0 0 -0 -0 0 0 0 0 1 1 0 0 0 0 0 0 nan
nan 1 1 0 1 1 1 -1 1 1 0 0 -0 -0 -0 0 1 0 -0 0 0 0 0 -0 -0 0 0 -0 -0 -0 0 0 0 0 1 1 -0 0 1 1 0 1 nan
nan 1 1 1 0 0 -1 -1 1 0 0 -0 -0 0 0 0 0 0 0 0 0 0 -0 0 0 0 0 -0 0 -0 0 0 0 0 0 1 0 0 0 1 1 1 nan
nan 0 1 0 0 0 -1 -1 1 1 1 0 0 0 0 0 0 0 -0 0 0 -0 -0 0 1 0 0 1 0 0 0 0 0 0 -0 0 0 0 -0 0 0 0 nan
nan 0 0 0 0 0 -1 0 0 1 1 1 0 0 -0 -0 1 -0 -0 0 0 1 1 1 1 0 0 0 0 0 0 0 0 0 -0 -0 -0 0 0 -0 -0 -0 nan
nan 0 0 1 1 1 0 -0 0 1 2 1 0 -0 -1 1 0 0 0 0 1 1 0 1 -0 0 -0 -0 0 0 0 0 0 0 -0 -0 -0 -0 0 0 0 -0 nan
nan 1 0 1 1 1 1 1 -0 1 2 1 1 -1 0 1 0 1 -0 1 1 0 0 0 0 0 -0 0 0 0 0 -0 -0 0 -0 -0 -0 -0 -0 -0 -1 -1 nan
nan 0 0 0 1 1 1 0 1 1 1 1 0 1 1 0 1 1 1 1 0 1 0 0 1 0 -0 0 0 0 0 0 0 0 0 -0 -0 -0 -0 -0 -1 -0 nan
nan 0 0 0 1 1 1 1 1 1 1 0 0 0 0 1 1 1 1 0 1 0 0 1 1 0 1 0 -0 0 1 1 0 0 0 0 -0 -0 -0 0 0 -0 nan
nan 0 0 0 0 0 0 1 1 2 1 0 0 -0 -0 0 0 1 0 0 1 0 1 0 0 0 0 0 -0 -0 0 -0 0 0 0 0 0 -0 -0 -0 -0 -0 nan
nan -0 -0 -0 0 0 1 1 2 1 0 0 -0 -1 -1 1 1 1 0 1 0 0 -0 0 0 -0 0 1 0 -0 -1 -1 -0 0 0 0 0 0 0 0 -0 -0 nan
nan -0 -0 -0 0 1 1 1 1 1 0 -0 -0 -0 -0 1 1 0 0 0 0 -0 1 0 0 -0 0 1 0 -0 -1 -1 -1 -1 -0 0 0 0 0 -0 -0 0 nan
nan 0 -0 -0 0 1 0 1 1 0 -1 -0 0 -0 1 2 1 -0 0 0 0 1 1 0 0 0 0 0 -1 -0 -0 -0 -1 -1 -1 -0 -0 -0 -0 0 0 0 nan
nan nan nan nan nan nan nan nan nan nan nan nan nan nan nan nan nan nan nan nan nan nan nan nan nan nan nan nan nan nan nan nan nan nan nan nan nan nan nan nan nan nan nan
Wind_Speed
5 5 5 3 1 3 6 8 8 8 9 10 11 11 11 12 11 11 11 12 14 15 13 13 14 14 14 13 13 14 14 14 14 15 16 16 17 18 18 16 17 19 19
10 5 5 4 3 2 5 7 7 9 10 10 11 12 12 13 13 13 13 14 15 14 14 14 14 14 14 14 13 12 11 12 14 14 14 16 18 18 18 18 15 16 13
10 4 3 3 1 2 4 7 7 8 10 10 12 11 13 14 14 14 14 15 14 14 15 15 14 15 16 15 13 10 9 12 12 12 16 13 14 14 14 11 8 11 11
10 5 4 2 2 1 3 6 7 8 8 9 11 14 14 15 15 14 14 15 14 13 15 15 15 13 14 13 11 10 10 12 15 15 12 9 10 11 9 9 9 9 10
11 8 6 6 3 3 4 6 8 9 9 10 12 15 15 16 15 15 13 13 13 11 15 16 16 14 14 11 9 8 11 16 18 14 13 13 10 11 11 12 13 13 13
12 10 7 8 4 3 6 7 9 9 9 10 12 14 16 17 16 17 15 9 7 15 10 11 11 13 12 11 9 9 14 18 18 10 9 8 9 13 14 15 13 13 12
12 12 10 10 7 5 7 9 11 11 10 11 13 14 16 17 19 20 17 13 21 15 13 8 11 11 12 12 11 11 14 15 10 9 10 12 11 13 12 12 11 11 11
14 14 13 12 10 9 9 11 12 12 12 12 13 15 17 20 20 21 15 10 15 7 13 11 13 12 13 13 13 12 15 14 8 9 12 10 10 12 12 11 10 11 11
15 17 17 15 14 12 11 12 14 14 14 13 13 15 18 21 21 23 16 16 12 13 11 14 17 15 14 16 14 13 15 15 11 10 11 9 12 12 12 11 10 11 11
17 19 18 18 17 16 15 15 16 17 16 16 15 19 21 20 23 22 18 21 11 13 14 17 17 15 17 17 15 14 13 16 7 10 10 10 14 12 13 12 11 12 11
16 18 19 21 20 19 18 17 17 18 18 18 18 21 21 21 23 22 20 22 14 15 16 16 17 17 17 17 15 14 13 11 6 10 11 11 11 13 15 15 14 14 14
15 17 19 22 23 22 22 20 20 21 22 23 23 24 23 24 22 19 22 24 18 20 19 16 16 15 16 17 16 14 13 10 11 10 11 12 13 12 14 15 15 15 12
16 17 19 20 24 24 24 23 22 20 22 23 23 23 25 22 22 23 25 25 23 22 22 19 16 16 16 18 16 15 12 13 11 11 14 12 12 13 13 15 14 12 12
17 17 20 20 21 24 22 26 26 23 21 21 22 25 26 27 30 24 29 25 24 25 24 22 17 16 17 16 16 16 16 14 14 8 12 13 12 13 13 12 13 14 13
16 18 19 20 22 21 24 27 30 25 24 24 22 25 27 25 31 25 25 25 24 28 29 25 19 22 23 20 17 21 16 13 15 12 12 16 13 12 13 13 12 12 13
17 15 18 21 21 22 25 29 32 31 24 25 26 27 29 28 28 27 29 33 28 31 29 25 25 28 22 24 25 23 17 14 15 12 13 17 14 13 14 14 12 12 12
20 17 15 18 20 23 24 26 32 34 33 29 28 29 29 31 30 28 30 30 34 33 31 29 32 27 28 22 27 23 19 16 16 16 13 14 17 14 14 13 13 14 12
19 19 19 18 20 23 24 26 30 34 37 34 31 31 32 30 31 30 32 31 34 32 33 32 27 28 28 24 26 24 19 18 18 17 15 15 14 14 17 15 14 14 13
19 19 20 21 22 26 25 26 29 30 37 40 33 28 33 31 33 31 30 31 34 37 28 29 31 30 27 24 26 26 21 19 18 17 16 14 12 13 14 18 17 15 13
14 17 20 23 24 26 26 26 27 31 30 40 42 29 28 29 35 34 34 34 34 43 37 37 33 29 27 28 25 27 22 23 19 19 18 16 15 15 14 15 17 15 13
12 14 18 20 24 26 26 27 31 33 37 34 39 35 31 32 30 32 32 34 35 39 39 39 43 36 32 31 29 28 24 23 22 20 20 18 17 17 15 14 16 13 13
10 12 15 18 18 21 25 26 28 35 41 37 37 36 34 31 31 27 33 36 35 33 37 39 39 43 37 35 38 35 23 21 22 22 22 21 19 18 18 16 15 14 12
7 9 11 13 15 18 21 23 30 33 35 35 39 38 35 34 29 26 28 33 40 37 46 40 42 50 42 40 39 40 25 19 27 24 22 22 22 20 18 18 18 16 16
8 10 9 9 12 16 19 23 30 33 34 34 36 36 33 29 25 27 27 31 37 40 40 42 45 50 44 41 39 38 27 27 31 22 22 25 20 21 21 19 19 17 16
9 10 10 7 9 13 16 22 23 30 24 19 22 25 34 28 25 25 28 32 35 43 36 54 48 54 50 44 46 38 34 23 32 24 27 26 25 21 20 19 18 18 20
10 12 11 10 8 15 15 26 23 31 21 24 22 26 22 24 27 29 29 31 32 37 37 55 47 59 59 45 44 40 37 27 34 25 26 27 28 24 21 20 20 16 12
Wind_Direction
152 153 97 70 353 262 241 225 226 216 201 197 201 210 209 209 200 192 183 173 168 168 167 172 165 165 160 154 145 137 138 142 141 137 129 124 121 115 110 106 108 114 115
155 139 74 55 30 294 226 210 214 210 203 196 201 208 212 208 199 191 186 181 176 173 172 171 166 166 162 150 144 134 135 137 134 130 128 128 130 125 119 127 133 116 118
150 144 102 95 169 250 211 193 196 199 200 200 205 209 208 204 204 194 190 185 180 176 175 173 170 168 160 157 150 143 139 137 124 109 103 121 135 135 134 137 123 123 121
159 149 148 127 214 229 187 186 184 185 198 209 208 205 207 204 204 197 194 188 183 180 179 174 167 168 166 159 153 145 141 132 113 116 119 124 128 141 146 141 126 129 128
168 169 189 199 213 221 190 185 188 180 188 206 209 206 199 203 203 196 191 201 184 184 175 170 168 171 171 166 160 148 141 125 114 117 126 117 130 131 133 127 127 123 128
172 174 203 206 198 200 194 192 198 191 188 195 201 205 207 205 199 185 180 257 221 311 168 165 171 174 174 172 168 153 143 125 117 133 149 180 149 143 139 139 134 136 137
181 187 218 209 202 188 203 197 204 204 203 201 201 205 211 209 204 200 202 323 242 271 329 189 189 184 186 180 172 155 148 134 129 142 137 173 164 152 155 156 160 161 158
185 199 230 218 213 202 205 201 206 210 211 211 209 209 210 213 208 200 220 246 192 260 205 176 212 201 189 182 174 164 152 143 114 150 163 185 181 170 175 171 173 166 164
193 215 230 225 220 216 209 210 207 209 217 215 214 219 221 219 216 210 226 197 212 187 192 187 213 205 197 184 177 170 161 155 139 161 145 201 201 190 185 188 191 187 189
204 219 223 231 228 225 218 213 213 210 212 217 213 216 224 226 220 217 225 202 218 216 208 200 216 208 196 183 181 172 167 151 143 165 166 192 186 189 183 196 202 200 205
212 221 220 234 232 230 224 221 216 212 211 214 214 218 225 221 222 223 226 212 221 218 224 232 217 203 190 182 182 176 169 168 173 169 200 223 202 193 187 201 207 211 215
219 218 224 228 236 227 228 226 219 218 212 212 214 216 216 216 219 212 213 213 227 221 225 217 207 201 195 188 184 177 163 179 172 179 220 228 201 174 174 193 197 198 188
228 224 218 222 234 228 229 229 220 215 214 215 214 213 219 214 218 217 212 221 223 217 211 208 201 203 189 179 188 181 171 172 172 188 222 211 167 171 171 174 171 168 170
231 223 222 216 227 233 222 227 230 215 211 215 215 215 223 215 218 220 216 217 214 213 209 206 201 226 187 178 186 179 168 173 172 184 221 188 167 172 163 164 173 169 158
233 227 222 220 222 223 221 232 232 216 225 212 217 223 218 216 223 219 211 220 215 211 211 212 205 199 186 182 182 190 168 176 171 178 176 171 171 179 169 163 171 169 161
234 229 225 221 221 232 228 236 234 225 221 227 213 222 224 219 221 218 218 215 213 217 215 209 219 194 188 179 184 186 177 177 172 175 186 173 175 183 172 170 169 171 168
233 231 230 232 224 226 242 235 235 236 220 221 219 217 224 227 225 218 224 224 223 223 215 237 202 201 185 186 183 169 179 176 172 167 173 179 178 185 177 181 176 177 172
242 242 244 244 234 232 226 249 234 236 234 223 225 226 223 226 230 231 229 235 231 220 220 211 198 191 187 179 185 178 179 177 173 171 170 172 173 180 182 187 184 185 177
247 250 250 246 243 239 232 226 249 241 234 231 221 230 231 227 231 234 236 239 232 224 231 211 190 186 184 186 189 175 178 176 176 174 178 173 168 186 188 188 189 190 177
259 256 253 251 243 237 237 227 226 241 245 230 229 219 233 227 231 233 238 239 235 235 233 225 208 182 193 190 185 175 178 185 175 181 179 174 182 187 186 218 191 187 184
259 262 257 257 256 241 231 224 220 223 231 230 227 220 233 237 230 233 236 238 232 233 226 232 216 191 193 192 186 175 180 181 178 183 177 181 188 187 189 207 196 193 200
267 272 269 254 252 239 228 225 223 220 225 226 223 217 220 229 240 234 227 228 230 225 229 218 215 196 194 192 180 170 165 179 182 187 183 179 193 193 197 201 195 192 225
309 302 291 256 246 235 222 217 218 225 230 224 228 227 226 233 233 232 226 222 226 230 219 230 221 199 197 196 192 179 165 183 180 188 189 178 196 195 199 203 201 201 202
329 331 323 274 246 236 220 223 223 221 215 220 222 226 227 232 231 222 223 225 230 231 227 228 219 201 194 194 190 188 182 182 176 177 190 188 192 196 200 204 205 200 206
335 334 329 306 258 238 218 215 222 216 209 228 221 232 226 229 223 220 225 227 234 229 233 226 220 210 196 196 191 189 187 190 189 183 184 191 194 202 202 200 202 202 213
333 340 332 319 278 243 232 212 219 212 204 211 204 212 213 217 218 220 229 238 236 238 240 217 219 207 194 198 191 191 191 190 181 187 185 190 194 198 201 202 210 209 205
Height
1488 1488 1488 1489 1489 1490 1490 1491 1493 1496 1498 1501 1503 1505 1506 1508 1510 1512 1513 1514 1515 1517 1519 1521 1523 1524 1526 1528 1529 1531 1532 1533 1534 1536 1537 1539 1540 1542 1543 1545 1545 1545 1547
1487 1487 1488 1488 1489 1489 1490 1491 1492 1495 1498 1501 1503 1505 1506 1509 1511 1513 1514 1516 1517 1519 1520 1522 1524 1526 1527 1529 1531 1533 1534 1535 1536 1538 1539 1541 1542 1544 1545 1546 1547 1548 1550
1488 1487 1488 1489 1490 1490 1490 1491 1492 1494 1497 1500 1503 1506 1507 1509 1512 1513 1515 1516 1519 1519 1521 1522 1525 1527 1529 1530 1532 1533 1535 1537 1539 1541 1542 1545 1545 1546 1547 1548 1549 1550 1551
1487 1488 1489 1489 1490 1490 1491 1491 1492 1495 1498 1500 1502 1505 1508 1509 1512 1515 1517 1519 1520 1521 1521 1524 1526 1530 1532 1533 1533 1534 1536 1538 1541 1541 1544 1548 1547 1547 1549 1549 1550 1551 1553
1487 1488 1488 1489 1490 1491 1492 1492 1493 1495 1497 1500 1503 1505 1507 1510 1512 1516 1519 1519 1519 1524 1522 1525 1525 1529 1531 1535 1536 1537 1537 1540 1543 1543 1542 1547 1551 1549 1551 1551 1552 1554 1555
1486 1488 1487 1489 1491 1492 1493 1493 1495 1497 1498 1499 1502 1505 1507 1509 1511 1516 1518 1520 1518 1516 1526 1526 1528 1530 1532 1536 1538 1539 1541 1542 1543 1547 1545 1548 1551 1551 1553 1553 1554 1555 1557
1486 1486 1486 1488 1489 1491 1493 1494 1495 1498 1499 1500 1501 1504 1507 1508 1510 1513 1516 1512 1519 1519 1525 1527 1529 1531 1532 1535 1538 1540 1543 1544 1543 1547 1546 1548 1552 1552 1554 1555 1556 1556 1558
1483 1484 1484 1486 1488 1490 1493 1493 1495 1498 1499 1501 1503 1504 1505 1508 1510 1513 1514 1516 1519 1521 1521 1525 1529 1530 1533 1535 1538 1541 1543 1545 1547 1548 1547 1549 1552 1553 1555 1557 1558 1559 1560
1480 1480 1482 1484 1487 1488 1491 1493 1494 1496 1499 1501 1504 1506 1506 1506 1511 1513 1516 1517 1519 1523 1523 1524 1529 1530 1532 1534 1537 1541 1543 1546 1546 1548 1548 1548 1552 1553 1556 1557 1558 1559 1561
1476 1477 1479 1482 1484 1486 1489 1491 1493 1495 1498 1500 1502 1505 1506 1508 1510 1513 1515 1517 1519 1520 1521 1524 1526 1527 1531 1534 1536 1539 1544 1546 1547 1550 1548 1547 1551 1553 1555 1556 1558 1559 1561
1473 1474 1476 1478 1481 1483 1486 1488 1490 1493 1496 1498 1500 1503 1505 1508 1510 1511 1513 1515 1517 1518 1520 1523 1525 1527 1530 1532 1536 1539 1542 1547 1550 1552 1547 1548 1551 1552 1554 1556 1558 1559 1561
1472 1473 1474 1475 1477 1480 1482 1484 1487 1489 1492 1494 1496 1499 1503 1506 1507 1510 1511 1513 1516 1517 1519 1523 1526 1529 1530 1530 1536 1538 1542 1547 1550 1551 1547 1549 1550 1552 1553 1555 1557 1559 1560
1469 1471 1472 1472 1473 1475 1477 1480 1483 1485 1488 1490 1493 1497 1499 1503 1505 1507 1509 1510 1513 1515 1517 1522 1524 1528 1529 1531 1535 1538 1542 1545 1549 1549 1547 1549 1551 1552 1553 1555 1557 1558 1560
1465 1467 1469 1470 1469 1470 1474 1476 1478 1482 1484 1487 1490 1493 1495 1498 1500 1502 1505 1507 1510 1512 1514 1517 1521 1525 1529 1533 1535 1539 1541 1545 1547 1547 1547 1549 1551 1553 1554 1555 1558 1559 1561
1461 1463 1465 1466 1465 1467 1469 1470 1473 1478 1478 1483 1487 1488 1491 1493 1494 1498 1502 1503 1506 1509 1510 1514 1518 1523 1527 1531 1534 1536 1540 1544 1546 1548 1546 1548 1552 1554 1556 1557 1559 1561 1562
1457 1459 1460 1461 1462 1461 1463 1464 1468 1472 1476 1476 1481 1483 1485 1488 1490 1493 1496 1499 1502 1504 1507 1510 1515 1521 1524 1527 1530 1535 1540 1543 1545 1547 1546 1549 1552 1555 1556 1558 1560 1562 1563
1452 1455 1456 1458 1458 1458 1456 1459 1462 1465 1469 1471 1474 1477 1479 1482 1485 1488 1490 1493 1496 1499 1501 1505 1511 1517 1521 1523 1528 1533 1538 1541 1543 1547 1547 1549 1551 1554 1557 1559 1559 1562 1563
1448 1450 1452 1454 1454 1454 1454 1452 1455 1458 1461 1464 1467 1469 1472 1475 1479 1482 1485 1488 1491 1495 1499 1502 1506 1512 1516 1521 1526 1531 1535 1539 1541 1545 1548 1549 1551 1554 1556 1558 1560 1562 1563
1443 1444 1446 1447 1448 1448 1449 1451 1448 1450 1453 1457 1462 1462 1466 1469 1473 1476 1478 1482 1486 1490 1495 1500 1501 1509 1515 1520 1523 1528 1532 1536 1539 1543 1547 1549 1551 1554 1556 1556 1559 1560 1562
1438 1439 1439 1440 1440 1442 1443 1444 1447 1445 1445 1448 1452 1459 1460 1463 1466 1471 1472 1476 1481 1483 1488 1495 1501 1506 1514 1517 1521 1526 1530 1533 1537 1541 1545 1548 1551 1554 1556 1556 1557 1560 1562
1434 1434 1434 1433 1432 1433 1435 1436 1439 1438 1438 1440 1445 1453 1454 1456 1460 1463 1466 1468 1474 1476 1480 1488 1495 1501 1509 1514 1517 1523 1527 1531 1535 1538 1541 1545 1549 1552 1556 1555 1557 1560 1561
1430 1429 1428 1426 1426 1426 1428 1430 1432 1432 1431 1436 1441 1446 1449 1451 1452 1456 1460 1462 1466 1470 1475 1482 1487 1494 1503 1508 1509 1516 1523 1532 1533 1535 1538 1542 1546 1550 1553 1555 1556 1559 1561
1425 1424 1422 1421 1421 1421 1423 1425 1424 1426 1429 1432 1435 1439 1443 1445 1448 1450 1453 1457 1461 1466 1468 1475 1480 1486 1497 1502 1504 1508 1515 1520 1527 1532 1535 1538 1542 1547 1550 1553 1555 1558 1561
1421 1419 1417 1416 1416 1417 1417 1417 1417 1419 1423 1425 1430 1434 1437 1440 1442 1446 1449 1452 1456 1459 1462 1468 1472 1480 1489 1494 1501 1505 1510 1513 1518 1526 1531 1535 1540 1544 1546 1549 1551 1555 1558
1419 1417 1413 1412 1412 1412 1412 1414 1413 1417 1421 1425 1428 1428 1431 1434 1438 1441 1443 1447 1449 1452 1454 1457 1463 1469 1482 1488 1493 1500 1505 1510 1513 1519 1525 1530 1536 1540 1543 1547 1549 1551 1551
1417 1414 1411 1407 1406 1405 1406 1407 1409 1414 1418 1422 1423 1424 1426 1429 1432 1434 1438 1440 1443 1444 1446 1449 1453 1462 1471 1480 1488 1494 1498 1503 1507 1514 1519 1525 1529 1535 1540 1543 1545 1548 1549